Location: Azle Junior High School South
(32.8932°N, 97.5300°W)
Time: 05:53:15
(UTC+00:00)

Daily predictions for brighter satellites

Satellite Brightness Start Highest point End
(mag) Time Altitude Azimuth Time Altitude Azimuth Time Altitude Azimuth
CZ-3B R/B 4.0 01:17:10 10° WNW 01:21:11 52° SW 01:33:31 10° SSE
CZ-4B R/B 3.6 01:17:27 10° S 01:22:28 79° WSW 01:27:22 10° NNW
APEX 2.7 01:21:26 10° NNW 01:24:35 55° ENE 01:27:28 10° SE
CZ-4B R/B 4.2 01:24:10 10° SE 01:28:52 28° ENE 01:33:32 10° NNE
Cosmos 1674 Rocket 3.7 01:27:13 10° N 01:31:35 53° E 01:35:55 10° SSE
Cosmos 1825 3.5 01:29:21 10° NNE 01:31:47 18° ENE 01:34:13 10° ESE
USA 234 4.1 01:28:56 10° E 01:34:46 36° NE 01:40:35 10° NNW
NOSS 3-1 (C) 3.5 01:30:52 10° S 01:34:59 32° ESE 01:39:31 10° NE
Meteor 2-11 Rocket 4.4 01:30:43 10° N 01:36:47 69° E 01:42:48 10° SSE
Hubble Space Telescope 1.4 01:34:40 10° WSW 01:38:24 39° S 01:41:39 13° ESE
Cosmos 2082 Rocket 3.1 01:33:39 10° NNW 01:39:12 53° WSW 01:44:41 10° S
Resurs 1-3 3.8 01:37:35 10° SSE 01:41:46 50° ENE 01:45:59 10° N
IKONOS-2 4.4 01:45:28 10° NNE 01:49:41 78° E 01:53:52 10° S
Okean O Rocket 2.8 01:49:28 15° ESE 01:51:50 23° ENE 01:55:16 10° NNE
Cosmos 1025 Rocket 3.8 01:48:30 10° NNE 01:52:24 32° E 01:55:30 14° SE
ATLAS 3B R/B 3.3 01:50:18 10° S 01:56:09 32° ESE 02:02:22 10° NE
Resurs 01 Rocket 2.6 01:55:01 17° ESE 01:57:27 28° ENE 02:01:12 10° NNE
YAOGAN 1 4.2 01:53:53 10° SSW 01:57:49 35° W 02:01:45 10° NNW
Cosmos 2218 Rocket 4.5 01:52:10 10° N 01:58:11 41° E 02:03:55 11° SSE
Cosmos 1346 Rocket 2.6 01:56:24 10° S 02:00:12 72° E 02:04:01 10° NNE
SJ-6B 2.8 01:58:07 10° S 02:02:02 86° WSW 02:06:01 10° NNW
USA 281 4.2 01:59:34 17° ESE 02:03:27 29° ENE 02:08:56 10° N
Cosmos 1975 Rocket 4.2 02:01:04 10° NNE 02:04:28 22° ENE 02:05:12 21° E
Cosmos 1302 Rocket 4.1 01:59:48 10° SSW 02:05:03 83° WNW 02:10:20 10° NNE
Cosmos 1328 3.8 02:06:10 10° N 02:09:50 49° E 02:11:47 24° SE
OAO 3 Rocket 3.4 02:05:25 10° W 02:10:17 67° N 02:13:29 21° E
Cosmos 1782 Rocket 3.4 02:09:27 10° S 02:13:46 80° E 02:18:09 10° N
Meteor 1-21 Rocket 4.4 02:09:51 10° N 02:15:41 57° E 02:20:11 17° SSE
PAYLOAD B 4.4 02:10:38 10° S 02:16:08 77° WSW 02:21:43 10° NNW
DELTA 2 R/B (1) 3.6 02:11:43 10° WNW 02:17:20 80° NNE 02:20:22 28° ESE
USA 186 1.5 02:16:16 33° SSE 02:17:30 75° ENE 02:20:33 10° N
Cosmos 1892 2.8 02:14:52 10° NNW 02:18:25 67° W 02:21:37 12° S
CZ-4 R/B 2.1 02:18:26 10° S 02:22:19 52° W 02:26:10 10° NNW
ATLAS 5 CENTAUR R/B 0.6 02:19:05 10° SSW 02:22:23 69° ESE 02:25:45 10° NE
Delta 2 Rocket 4.4 02:17:27 10° WSW 02:24:04 48° S 02:26:51 29° SE
Cosmos 1455 3.0 02:22:59 10° SSW 02:26:24 47° W 02:29:52 10° N
Cosmos 864 Rocket 4.4 02:22:15 10° N 02:28:29 78° E 02:34:03 14° S
Cosmos 968 Rocket 3.5 02:23:37 10° NNW 02:28:44 81° WSW 02:32:17 20° S
Feng Yun 1-1 Rocket 4.2 02:28:09 17° SSE 02:32:30 90° W 02:38:06 10° NNW
CSL-04 Debris 4.1 02:34:11 20° SSE 02:37:59 87° W 02:43:26 10° NNW
Cosmos 1300 Rocket 3.9 02:35:55 10° SSW 02:40:11 62° W 02:44:32 10° N
CSL-04 Rocket 3.8 02:45:00 24° S 02:48:26 77° WSW 02:53:58 10° NNW
Timation 1 Rocket 4.5 02:42:47 10° NNW 02:48:44 72° WSW 02:51:45 30° S
In-Cosmos 22 Rocket 4.0 02:48:02 10° N 02:53:28 75° E 02:54:49 52° SSE
SJ 16-02 1.2 02:49:21 10° NNW 02:53:41 80° WSW 02:54:06 70° SSW
OAO 1 Rocket 4.5 02:48:32 10° W 02:53:51 74° N 02:55:16 49° ENE
CZ-4C R/B 3.9 02:54:00 10° N 02:56:34 44° NNW 02:56:34 44° NNW
NOSS 3-1 (A) 2.7 02:57:06 10° SSW 03:01:47 90° SSE 03:07:08 10° NNE
Cosmos 2098 Rocket 4.1 02:57:11 10° SSW 03:02:49 55° W 03:07:31 10° N
Okean-O 2.7 03:06:02 67° N 03:06:02 67° N 03:09:54 10° N
Terra 3.8 03:09:26 17° NNE 03:09:26 17° NNE 03:11:00 10° NNE
Atlas Centaur 2 3.9 03:04:43 10° SW 03:05:22 13° SSW 03:05:22 13° SSW
USA 234 3.5 03:15:42 45° S 03:17:29 58° SW 03:23:55 10° NW
Hubble Space Telescope 2.8 03:15:03 10° WSW 03:16:31 20° WSW 03:16:31 20° WSW
Cosmos 1833 4.1 03:14:02 10° NNW 03:19:40 76° WSW 03:19:59 73° SW
Milstar 3 4.4 03:17:11 10° WSW 03:27:49 71° S 03:37:38 35° E
Okean O Rocket 3.6 03:26:49 21° WSW 03:27:58 23° W 03:31:27 10° NW
Resurs 01 Rocket 3.8 03:32:30 17° WSW 03:33:50 20° W 03:37:04 10° NW
ATLAS 3B R/B 3.8 03:40:01 10° SW 03:46:35 44° NW 03:53:38 10° NNE
USA 281 3.9 03:46:26 41° SW 03:47:37 45° WSW 03:53:52 10° NW
Centaur D-1AR AC-36 4.0 03:47:17 10° WSW 04:13:23 20° E 04:38:45 10° E
Centaur D-1AR AC-36 4.0 03:47:16 10° WSW 04:13:23 20° E 04:38:45 10° E
SPOT 5 4.4 04:03:53 37° WNW 04:03:53 37° WNW 04:07:36 10° NNW
CZ-4C R/B 4.5 04:31:31 10° N 04:36:24 25° NE 04:36:24 25° NE
Cosmos 2297 Rocket 4.4 04:39:38 10° NNW 04:41:24 21° N 04:41:24 21° N
Resurs 1-4 Rocket 4.2 08:28:30 10° N 08:30:10 21° N 08:30:10 21° N
H-2A R/B 4.4 08:46:24 37° SE 08:46:24 37° SE 09:04:44 10° ESE
Cosmos 2278 Rocket 4.4 08:48:27 10° N 08:52:50 22° ENE 08:57:12 10° ESE
Cosmos 2219 Rocket 4.3 08:55:50 17° NNW 08:55:50 17° NNW 08:57:31 10° N
CZ-2C R/B 4.3 09:09:19 10° NE 09:13:34 25° E 09:14:38 24° ESE
BREEZE-M DEB (TANK) 4.1 09:13:45 73° WSW 09:14:38 83° NW 09:40:11 10° NE
Meteor 1-19 Rocket 4.5 09:20:01 69° NE 09:20:01 69° NE 09:25:20 10° N
ADEOS II 3.6 09:15:08 10° N 09:17:38 26° NNW 09:17:38 26° NNW
Cosmos 1092 Rocket 3.9 09:24:59 74° ESE 09:25:11 75° E 09:31:18 10° N
Cosmos 2026 Rocket 3.9 09:32:11 79° SSE 09:32:36 86° E 09:38:57 10° N
CZ-2D R/B 4.1 09:29:11 10° NNW 09:30:50 17° NNW 09:30:50 17° NNW
BREEZE-M DEB (TANK) 3.5 09:34:05 62° NW 09:34:06 62° NW 09:37:44 10° NE
Envisat 3.4 09:29:37 10° NNE 09:34:36 56° E 09:34:51 55° ESE
SL-16 R/B 2.6 09:36:56 59° NW 09:36:56 59° NW 09:42:08 10° NNW
EO 1 Delta rocket 4.1 09:38:03 10° N 09:41:49 60° N 09:41:49 60° N
Meteor 1-27 Rocket 4.1 09:46:40 51° NW 09:46:40 51° NW 09:51:33 10° N
Meteor 2-4 Rocket 3.9 09:48:37 41° SSE 09:50:19 62° E 09:55:42 10° NNE
CZ-4 R/B 3.9 09:45:53 10° N 09:49:59 64° NNW 09:49:59 64° NNW
COSMOS 2428 4.5 09:52:37 18° NW 09:52:37 18° NW 09:55:29 10° NNW
Cosmos 1943 Rocket 3.5 09:46:53 10° N 09:52:12 39° ENE 09:57:28 10° SE
Thor Agena Rocket 3.8 09:47:24 10° NNE 09:52:23 60° ESE 09:53:50 43° SSE
Cosmos 1627 Rocket 4.4 09:53:01 60° WSW 09:53:38 64° W 09:59:56 10° N
YAOGAN 6 4.1 09:50:56 10° NNE 09:53:02 32° NE 09:53:02 32° NE
H-2A R/B 4.5 09:52:37 10° NE 09:56:05 18° E 09:59:37 10° SE
Cosmos 2237 Rocket 2.7 09:58:31 42° WNW 09:58:31 42° WNW 10:03:42 10° N
Cosmos 1980 4.3 09:59:54 38° WNW 09:59:54 38° WNW 10:04:54 10° N
NOAA 11 4.1 09:55:06 10° NNE 10:00:34 85° ESE 10:02:18 45° S
Cosmos 2112 Rocket 3.9 10:01:07 66° SW 10:01:45 76° WNW 10:07:06 10° NNE
Cosmos 1340 Rocket 3.3 10:04:12 47° N 10:04:12 47° N 10:07:03 10° N
ALOS 3.8 09:59:58 10° NNW 10:02:16 22° NW 10:02:16 22° NW
Cosmos 1867 3.4 10:00:36 10° NW 10:06:01 66° WSW 10:11:23 10° SSE
Cosmos 1328 Rocket 3.5 10:08:29 57° S 10:09:22 83° E 10:13:49 10° N
ATLAS 2AS CENTAUR R/B 2.8 10:07:19 36° SSW 10:10:45 87° WNW 10:18:04 10° NNE
Cosmos 1805 3.1 10:09:35 10° N 10:13:18 76° E 10:13:52 60° SSE
Delta 128 4.0 10:17:14 43° S 10:17:14 43° S 10:21:29 10° ESE
Meteor 2-9 Rocket 4.4 10:12:20 10° NNW 10:17:25 43° W 10:17:39 43° W
Chandra Rocket (1) 2.5 10:18:55 35° SSE 10:18:55 35° SSE 10:23:48 10° E
IRS-1D 3.5 10:18:36 10° N 10:23:41 70° WNW 10:26:05 32° SSW
Cosmos 1633 Rocket 3.3 10:19:36 10° N 10:23:56 69° E 10:28:15 10° SSE
CSL-04 DEB 4.3 10:19:55 10° NNE 10:24:05 84° WNW 10:25:35 39° SSW
Cosmos 2266 Rocket 4.4 10:22:06 10° S 10:28:07 63° E 10:34:05 10° NNE
Cosmos 1680 Rocket 4.2 10:28:09 32° W 10:28:55 34° WNW 10:33:43 10° N
ASC 2 Rocket 4.4 10:32:35 26° SSW 10:34:04 31° S 10:39:31 10° ESE
Iridium 51 3.8 10:33:29 28° S 10:35:08 89° E 10:38:30 10° N
Cosmos 2278 Rocket 2.5 10:31:43 10° NW 10:37:01 42° WSW 10:42:18 10° S
NOSS 2-2 (C) 4.4 10:32:49 10° NNW 10:38:01 89° WSW 10:45:31 10° SSE
Cosmos 1461 2.7 10:38:28 10° NW 10:42:10 49° WSW 10:45:49 10° S
USA 308 3.0 10:41:22 37° W 10:42:22 47° NW 10:46:09 10° NNE
Cosmos 1674 3.4 10:39:56 10° SSE 10:43:13 47° E 10:46:33 10° NNE
Cosmos 1420 Rocket 3.9 10:38:11 10° NNW 10:43:27 79° WSW 10:48:43 10° S
Delta 2 Rocket 4.4 10:40:59 24° SSW 10:43:29 42° SSE 10:47:57 10° E
Cosmos 494 Rocket 3.9 10:42:24 18° SSW 10:46:15 72° WNW 10:51:24 10° NNE
ATLAS 5 CENTAUR R/B 3.2 10:42:33 21° WSW 10:46:39 28° SSW 10:50:40 10° SE
Cosmos 2056 Rocket 3.5 10:42:03 10° NNW 10:47:28 87° WSW 10:52:53 10° SSE
SL-16 R/B 2.3 10:45:14 21° SW 10:48:53 56° WNW 10:54:26 10° N
Cosmos 2344 4.5 10:41:03 10° NW 10:50:30 61° WSW 11:03:46 10° SSE
Sakura Rocket 4.1 10:50:19 20° SSW 10:50:33 20° SSW 10:53:22 10° SSE
CZ-2C R/B 3.4 10:47:06 10° N 10:51:36 31° WNW 10:53:57 21° WSW
Cosmos 1626 2.6 10:51:53 30° W 10:52:18 31° W 10:55:17 10° NNW
Cosmos 1766 3.3 10:49:40 10° N 10:53:21 70° E 10:57:00 10° SSE
Cosmos 1939 Rocket 3.7 10:50:14 10° NNE 10:53:52 46° E 10:57:31 10° S
Cosmos 921 Rocket 4.1 10:53:25 23° W 10:54:30 25° WNW 10:58:05 10° NNW
KORONAS-FOTON 4.2 10:51:44 10° S 10:55:20 61° E 10:58:58 10° NNE
Cosmos 1340 2.8 10:52:16 10° NNW 10:55:30 39° W 10:58:35 11° SSW
Cosmos 1553 Rocket 4.1 10:51:50 10° NNW 10:57:49 50° W 11:03:42 10° SSW
Cosmos 1515 Rocket 3.6 10:54:48 10° SSW 10:59:10 57° W 11:03:33 10° N
Cosmos 1624 Rocket 3.9 10:54:37 10° NNW 10:59:47 67° WSW 11:04:54 10° S
Cosmos 1975 3.6 10:56:50 10° NNW 11:00:09 28° W 11:02:30 16° SW
ASTRO E2 3.3 11:00:59 20° SW 11:02:59 38° SSE 11:06:17 10° E
Cosmos 1484 Rocket 2.7 11:05:13 10° N 11:08:43 55° WNW 11:12:13 10° SSW
Cosmos 1470 Rocket 3.7 11:05:49 10° NNW 11:10:07 53° W 11:14:25 10° S
CBERS-1 4.1 11:08:43 10° N 11:13:42 57° WNW 11:18:40 10° SSW
ATLAS 5 CENTAUR R/B 3.6 11:08:38 10° NNW 11:13:48 44° ENE 11:20:01 10° SE
H-2A R/B 2.4 11:12:13 10° NNE 11:15:33 81° E 11:18:52 10° S
CZ-3 R/B 3.3 11:01:21 13° WSW 11:20:24 51° S 11:26:54 10° E
In-Cosmos 22 4.5 11:18:06 10° S 11:23:25 71° E 11:28:53 10° NNE
YAOGAN 11 4.1 11:23:41 10° S 11:28:06 73° WSW 11:32:37 10° NNW
Cosmos 1842 3.9 11:26:26 10° SW 11:29:47 32° W 11:33:12 10° NNW
USA 290 2.0 11:27:47 10° NNW 11:30:50 64° WSW 11:33:52 10° S
COSMO-SKYMED 1 4.0 11:27:00 10° SE 11:31:07 44° ENE 11:35:15 10° N
BlueWalker 3 1.9 11:30:01 10° NW 11:33:50 83° SW 11:37:37 10° SE
IRS-1C 4.2 11:28:36 10° NNE 11:33:58 89° ESE 11:39:16 10° SSW
H-2A R/B 2.5 11:30:51 10° N 11:35:31 40° WNW 11:40:17 10° SW
Cosmos 1943 Rocket 3.3 11:31:17 10° NW 11:35:36 23° W 11:39:52 10° SSW
Cosmos 1933 Rocket 3.7 11:33:12 10° NNW 11:37:25 52° W 11:41:37 10° S
